[[{"header":{"parameterUnit":"m.s-1","parameterCategory":1,"la1":30.2992,"la2":30.254,"lo1":-89.0895,"lo2":-89.0443,"dy":0.0025,"dx":0.0025,"nx":19,"ny":19,"refTime":"2026-03-25T03:00:00:Z","depth":0,"parameterNumber":2,"parameterNumberName":"U-component_of_WINDS"},"data":[0,0,0,-0.6927,-0.6927,-0.6921,-0.692,-0.6927,-0.6927,0,0,0,0,0,0,0,0,0,0,0,-0.6936,-0.6936,-0.6927,-0.6927,-0.6921,-0.692,-0.6927,-0.6927,0,0,0,0,0,0,0,0,0,0,0,-0.6936,-0.6936,-0.6937,-0.6927,-0.6921,-0.692,-0.6927,-0.6927,0,0,0,0,0,0,0,0,0,0,-0.6931,-0.6946,-0.6936,-0.6937,-0.6927,-0.6921,-0.692,-0.6926,-0.6927,-0.6935,0,-0.6944,0,-0.6936,-0.6928,-0.6928,0,0,0,-0.6922,-0.6946,-0.6937,-0.6937,-0.6927,-0.6921,-0.6922,-0.6926,-0.6927,-0.6936,-0.6944,-0.6944,-0.6936,-0.6928,-0.6928,-0.6994,-0.6995,0,0,-0.6922,-0.6939,-0.6937,-0.6938,-0.6938,-0.6922,-0.6922,-0.6926,-0.6937,-0.6944,-0.6944,-0.6936,-0.6928,-0.6928,-0.6994,-0.6994,0,0,0,-0.6927,-0.694,-0.6931,-0.6938,-0.6936,-0.6922,-0.6922,-0.6937,-0.6932,-0.6944,-0.6936,-0.6928,-0.6929,-0.6993,-0.6994,-0.7038,0,0,0,-0.6927,-0.6942,-0.6931,-0.6942,-0.6936,-0.6936,-0.6932,-0.6932,-0.6932,-0.6936,-0.6928,-0.6929,-0.6992,-0.6993,-0.7036,-0.7057,0,0,0,-0.6934,-0.6943,-0.6945,-0.6943,-0.694,-0.6935,-0.6931,-0.6931,-0.6927,-0.6928,-0.6929,-0.6992,-0.6993,-0.7033,-0.7053,-0.708,0,0,0,-0.6947,-0.6984,-0.6946,-0.6983,-0.6941,-0.6962,-0.6931,-0.6946,-0.6952,-0.6929,-0.6992,-0.6994,-0.7033,-0.705,-0.7078,-0.7107,-0.712,0,0,-0.7003,-0.6991,-0.7012,-0.6978,-0.701,-0.6962,-0.7001,-0.6991,-0.6976,-0.6989,-0.6991,-0.7037,-0.7053,-0.708,-0.7187,-0.7198,0,0,0,-0.7035,-0.7051,-0.7056,-0.7062,-0.7054,-0.7051,-0.7032,-0.7028,-0.7039,-0.6986,-0.7053,-0.7062,-0.7077,-0.709,-0.7099,-0.7112,-0.7,-0.7,-0.7,-0.7139,-0.7117,-0.7151,-0.7129,-0.7136,-0.7117,-0.7121,-0.7113,-0.7089,-0.7105,-0.7109,-0.7177,-0.7193,-0.72,-0.7213,-0.7122,-0.7122,-0.7122,-0.7122,-0.722,-0.7239,-0.7206,-0.7228,-0.7205,-0.7223,-0.7207,-0.719,-0.7205,-0.7172,-0.7184,-0.7151,-0.7212,-0.7223,-0.7126,-0.7125,-0.7125,-0.7124,-0.7124,-0.7286,-0.7291,-0.7286,-0.7294,-0.7302,-0.7279,-0.7295,-0.7274,-0.7254,-0.7266,-0.7269,-0.7268,-0.7266,-0.7269,-0.7269,-0.7269,-0.7269,-0.7269,-0.727,-0.7358,-0.735,-0.7365,-0.7361,-0.7363,-0.7363,-0.7345,-0.7347,-0.7344,-0.7327,-0.7327,-0.7303,-0.7221,-0.7202,-0.7273,-0.7273,-0.7272,-0.7272,-0.7272,-0.7449,-0.7425,-0.7449,-0.7451,-0.7445,-0.7456,-0.7429,-0.7435,-0.7433,-0.7442,-0.7415,-0.7358,-0.7345,-0.7337,-0.7321,-0.7419,-0.7419,-0.7419,-0.7419,-0.7506,-0.7497,-0.7517,-0.7522,-0.7525,-0.7503,-0.7532,-0.752,-0.7503,-0.7501,-0.7483,-0.746,-0.7453,-0.7444,-0.7434,-0.7419,-0.7539,-0.7539,-0.754,-0.7562,-0.7552,-0.7581,-0.7563,-0.7558,-0.7554,-0.7582,-0.759,-0.7566,-0.7544,-0.7499,-0.7494,-0.7456,-0.7444,-0.7423,-0.7408,-0.7379,0,0]},{"header":{"parameterUnit":"m.s-1","parameterCategory":1,"la1":30.2992,"la2":30.254,"lo1":-89.0895,"lo2":-89.0443,"dy":0.0025,"dx":0.0025,"nx":19,"ny":19,"refTime":"2026-03-25T03:00:00:Z","depth":0,"parameterNumber":3,"parameterNumberName":"V-component_of_WINDS"},"data":[0,0,0,2.1882,2.1882,2.1875,2.1875,2.1874,2.1875,0,0,0,0,0,0,0,0,0,0,0,2.1888,2.1889,2.1882,2.1882,2.1875,2.1875,2.1874,2.1875,0,0,0,0,0,0,0,0,0,0,0,2.1888,2.1889,2.1889,2.1882,2.1875,2.1875,2.1874,2.1877,0,0,0,0,0,0,0,0,0,0,2.1882,2.1893,2.1889,2.1889,2.1881,2.1875,2.1875,2.1877,2.1876,2.1881,0,2.1886,0,2.1881,2.1875,2.1875,0,0,0,2.1878,2.1893,2.1887,2.1889,2.1881,2.1875,2.1877,2.1876,2.1876,2.1881,2.1886,2.1886,2.1881,2.1875,2.1875,2.1914,2.1914,0,0,2.1878,2.189,2.1887,2.1887,2.1888,2.1877,2.1877,2.1876,2.1883,2.1886,2.1886,2.1881,2.1875,2.1875,2.1913,2.1914,0,0,0,2.1882,2.189,2.1884,2.1887,2.1885,2.1877,2.1876,2.1883,2.188,2.1886,2.1881,2.1875,2.1875,2.1913,2.1914,2.1942,0,0,0,2.1882,2.1892,2.1884,2.1891,2.1885,2.1884,2.1883,2.188,2.1879,2.1881,2.1875,2.1875,2.1913,2.1913,2.194,2.1953,0,0,0,2.1887,2.1893,2.1894,2.1892,2.1889,2.1884,2.188,2.1879,2.1876,2.1875,2.1875,2.1912,2.1913,2.1939,2.195,2.1966,0,0,0,2.1896,2.1919,2.1894,2.1917,2.189,2.1901,2.188,2.1888,2.1891,2.1875,2.1913,2.1914,2.1938,2.1949,2.1965,2.1981,2.1989,0,0,2.1931,2.1923,2.1936,2.1914,2.1933,2.1901,2.1924,2.1916,2.1905,2.1912,2.1912,2.1941,2.195,2.1966,2.2031,2.2037,0,0,0,2.1951,2.196,2.1963,2.1965,2.196,2.1955,2.1942,2.1939,2.1944,2.1911,2.1951,2.1956,2.1964,2.1972,2.1977,2.1984,2.1918,2.1918,2.1917,2.2016,2.2001,2.2021,2.2006,2.2009,2.1996,2.1997,2.199,2.1975,2.1985,2.1986,2.2027,2.2036,2.204,2.2047,2.1994,2.1994,2.1994,2.1994,2.2065,2.2075,2.2055,2.2066,2.2051,2.2061,2.2049,2.2038,2.2045,2.2025,2.2032,2.201,2.2048,2.2053,2.1996,2.1996,2.1996,2.1996,2.1995,2.2105,2.2107,2.2103,2.2106,2.211,2.2095,2.2103,2.2089,2.2076,2.2083,2.2082,2.2082,2.2079,2.2084,2.2084,2.2084,2.2084,2.2084,2.2084,2.2147,2.2142,2.215,2.2147,2.2147,2.2145,2.2133,2.2133,2.2129,2.2118,2.2118,2.2102,2.2054,2.2042,2.2086,2.2086,2.2086,2.2086,2.2085,2.2201,2.2187,2.2199,2.22,2.2194,2.2199,2.2182,2.2183,2.2181,2.2186,2.2168,2.2136,2.2127,2.2122,2.2112,2.2171,2.2171,2.2171,2.2171,2.2234,2.2228,2.2238,2.224,2.224,2.2225,2.2241,2.2231,2.222,2.2218,2.2208,2.2193,2.2189,2.2183,2.2177,2.2167,2.2239,2.2239,2.2239,2.2265,2.2259,2.2274,2.2263,2.2258,2.2254,2.2268,2.2271,2.2255,2.2242,2.2216,2.2213,2.219,2.2183,2.2168,2.216,2.2141,0,0]}]]